Вернуться в каталог

STARLINK-33782

АктивенСвязьVLEO
NORAD 64332·PAYLOAD·🇺🇸 United States

Запущен Jun 10, 2025 с Cape Canaveral Space Force Station

Loading…

Ближайшие Пролёты (ближайшие 24 часа)

TLE

СвежийSource: CelesTrak SupGP

Эпоха: Sep 14, 2026, 20:57 UTC

1 64332C 25124R   26257.87340278 -.00075176  00000+0 -27229-2 0  2571
2 64332  43.0002 133.1842 0001357 270.6877 135.1072 15.27615263    12

Отслеживайте STARLINK-33782 в реальном времени с AllMySat

Download on the App Store